User: anonymous   Login
Location: Clanezzo
(45.7500°N, 9.6000°E)
Time: 12:25:56
(UTC+00:00)
Language:

PicSat - Orbit

View from above orbital plane
View from above orbital plane
View from above satellite
View from above satellite

Ground track
Ground track

The orbit data is extracted from the following two-line orbital elements,

1 43131U 18004W   22179.16341363  .00013278  00000-0  37205-3 0  9994
2 43131  97.3761 258.4689 0004477 312.7056  47.3811 15.36726024248223
Epoch (UTC): 28 June 2022 03:55:18
Eccentricity: 0.0004477
inclination: 97.3761°
perigee height: 453 km
apogee height: 459 km
right ascension of ascending node: 258.4689°
argument of perigee: 312.7056°
revolutions per day: 15.36726024
mean anomaly at epoch: 47.3811°
orbit number at epoch: 24822

The dashed part of the orbit path shows where the satellite is in the earth's shadow,  

DLR